TimeEDT,TemperatureF,Dew PointF,Humidity,Sea Level PressureIn,VisibilityMPH,Wind Direction,Wind SpeedMPH,Gust SpeedMPH,PrecipitationIn,Events,Conditions,WindDirDegrees,DateUTC
12:15 AM,46.4,44.6,93,30.23,10.0,SSW,3.5,-,N/A,,Clear,210,2012-10-12 04:15:00
12:35 AM,46.4,44.6,93,30.22,10.0,SSW,3.5,-,N/A,,Clear,210,2012-10-12 04:35:00
12:55 AM,44.6,42.8,93,30.22,10.0,SSW,3.5,-,N/A,,Clear,210,2012-10-12 04:55:00
1:35 AM,44.6,42.8,93,30.21,10.0,SSW,4.6,-,N/A,,Clear,200,2012-10-12 05:35:00
1:55 AM,46.4,44.6,93,30.21,10.0,South,4.6,-,N/A,,Clear,190,2012-10-12 05:55:00
2:15 AM,46.4,42.8,87,30.20,10.0,SSW,4.6,-,N/A,,Clear,200,2012-10-12 06:15:00
2:35 AM,44.6,42.8,93,30.20,10.0,South,5.8,-,N/A,,Clear,190,2012-10-12 06:35:00
2:55 AM,44.6,42.8,93,30.20,10.0,SSW,4.6,-,N/A,,Clear,200,2012-10-12 06:55:00
3:15 AM,44.6,42.8,93,30.20,10.0,South,4.6,-,N/A,,Clear,190,2012-10-12 07:15:00
3:35 AM,44.6,42.8,93,30.19,10.0,South,4.6,-,N/A,,Clear,190,2012-10-12 07:35:00
3:55 AM,44.6,42.8,93,30.19,10.0,SSW,4.6,-,N/A,,Clear,210,2012-10-12 07:55:00
4:15 AM,44.6,42.8,93,30.18,10.0,SW,4.6,-,N/A,,Clear,220,2012-10-12 08:15:00
4:55 AM,42.8,42.8,100,30.18,10.0,SSW,4.6,-,N/A,,Clear,210,2012-10-12 08:55:00
5:15 AM,42.8,41.0,93,30.18,7.0,SW,5.8,-,N/A,,Clear,220,2012-10-12 09:15:00
5:35 AM,42.8,42.8,100,30.18,7.0,SW,5.8,-,N/A,,Clear,220,2012-10-12 09:35:00
6:15 AM,42.8,42.8,100,30.19,10.0,SW,5.8,-,N/A,,Clear,220,2012-10-12 10:15:00
6:35 AM,42.8,42.8,100,30.19,10.0,SW,5.8,-,N/A,,Clear,230,2012-10-12 10:35:00
6:55 AM,44.6,42.8,93,30.19,10.0,WSW,5.8,-,N/A,,Clear,240,2012-10-12 10:55:00
7:15 AM,44.6,42.8,93,30.20,10.0,SW,6.9,-,N/A,,Clear,230,2012-10-12 11:15:00
7:35 AM,44.6,42.8,93,30.19,10.0,SW,6.9,-,N/A,,Clear,230,2012-10-12 11:35:00
7:55 AM,44.6,42.8,93,30.20,10.0,SW,6.9,-,N/A,,Clear,220,2012-10-12 11:55:00
8:15 AM,46.4,44.6,93,30.20,10.0,SW,5.8,-,N/A,,Clear,220,2012-10-12 12:15:00
8:35 AM,48.2,44.6,87,30.20,10.0,WSW,6.9,-,N/A,,Clear,240,2012-10-12 12:35:00
8:55 AM,51.8,46.4,82,30.21,10.0,WSW,5.8,-,N/A,,Clear,240,2012-10-12 12:55:00
9:15 AM,53.6,46.4,77,30.22,10.0,West,4.6,-,N/A,,Clear,260,2012-10-12 13:15:00
9:35 AM,55.4,46.4,72,30.22,10.0,WSW,3.5,-,N/A,,Clear,250,2012-10-12 13:35:00
10:15 AM,60.8,44.6,55,30.23,10.0,West,5.8,-,N/A,,Clear,280,2012-10-12 14:15:00
10:35 AM,62.6,44.6,52,30.22,10.0,Calm,Calm,-,N/A,,Clear,0,2012-10-12 14:35:00
10:55 AM,62.6,42.8,48,30.22,10.0,WNW,4.6,-,N/A,,Clear,290,2012-10-12 14:55:00
11:15 AM,64.4,41.0,42,30.22,10.0,NW,8.1,-,N/A,,Clear,320,2012-10-12 15:15:00
11:35 AM,64.4,37.4,37,30.22,10.0,NW,8.1,-,N/A,,Clear,320,2012-10-12 15:35:00
11:55 AM,64.4,37.4,37,30.22,10.0,WNW,8.1,-,N/A,,Clear,290,2012-10-12 15:55:00
12:15 PM,66.2,37.4,35,30.22,10.0,NNW,5.8,-,N/A,,Clear,330,2012-10-12 16:15:00
12:35 PM,66.2,39.2,37,30.20,10.0,NNW,9.2,-,N/A,,Clear,340,2012-10-12 16:35:00
1:15 PM,68.0,41.0,37,30.19,10.0,NNW,8.1,-,N/A,,Clear,330,2012-10-12 17:15:00
1:35 PM,68.0,41.0,37,30.19,10.0,North,5.8,-,N/A,,Clear,350,2012-10-12 17:35:00
1:55 PM,68.0,39.2,35,30.19,10.0,North,6.9,-,N/A,,Clear,350,2012-10-12 17:55:00
2:35 PM,68.0,41.0,37,30.18,10.0,NNE,6.9,-,N/A,,Clear,20,2012-10-12 18:35:00
3:55 PM,68.0,41.0,37,30.19,10.0,NE,4.6,-,N/A,,Clear,50,2012-10-12 19:55:00
4:35 PM,68.0,41.0,37,30.20,10.0,NNW,5.8,-,N/A,,Clear,340,2012-10-12 20:35:00
4:55 PM,68.0,41.0,37,30.20,10.0,North,4.6,-,N/A,,Clear,10,2012-10-12 20:55:00
5:15 PM,68.0,41.0,37,30.21,10.0,NNE,5.8,-,N/A,,Clear,30,2012-10-12 21:15:00
5:35 PM,68.0,42.8,40,30.22,7.0,NE,3.5,-,N/A,,Clear,40,2012-10-12 21:35:00
5:55 PM,66.2,44.6,46,30.22,10.0,NNE,3.5,-,N/A,,Clear,30,2012-10-12 21:55:00
6:15 PM,64.4,44.6,49,30.23,10.0,Calm,Calm,-,N/A,,Clear,0,2012-10-12 22:15:00
6:35 PM,62.6,44.6,52,30.24,10.0,Calm,Calm,-,N/A,,Clear,0,2012-10-12 22:35:00
6:55 PM,60.8,46.4,59,30.24,10.0,Calm,Calm,-,N/A,,Clear,0,2012-10-12 22:55:00
7:15 PM,59.0,46.4,63,30.24,10.0,Calm,Calm,-,N/A,,Clear,0,2012-10-12 23:15:00
7:35 PM,55.4,48.2,77,30.26,10.0,Calm,Calm,-,N/A,,Clear,0,2012-10-12 23:35:00
7:55 PM,55.4,48.2,77,30.27,10.0,Calm,Calm,-,N/A,,Clear,0,2012-10-12 23:55:00
8:15 PM,55.4,50.0,82,30.28,10.0,Calm,Calm,-,N/A,,Clear,0,2012-10-13 00:15:00
8:55 PM,53.6,50.0,88,30.29,10.0,Calm,Calm,-,N/A,,Clear,0,2012-10-13 00:55:00
9:15 PM,55.4,46.4,72,30.29,10.0,Calm,Calm,-,N/A,,Clear,0,2012-10-13 01:15:00
9:35 PM,53.6,46.4,77,30.31,10.0,Calm,Calm,-,N/A,,Clear,0,2012-10-13 01:35:00
9:55 PM,53.6,46.4,77,30.33,10.0,NNE,5.8,-,N/A,,Clear,20,2012-10-13 01:55:00
10:15 PM,53.6,44.6,72,30.35,10.0,NE,8.1,-,N/A,,Clear,50,2012-10-13 02:15:00
10:35 PM,53.6,44.6,72,30.36,10.0,NE,10.4,16.1,N/A,,Clear,40,2012-10-13 02:35:00
11:15 PM,51.8,42.8,71,30.37,10.0,NE,10.4,-,N/A,,Clear,40,2012-10-13 03:15:00
11:55 PM,51.8,35.6,54,30.39,10.0,NE,10.4,16.1,N/A,,Clear,40,2012-10-13 03:55:00